Temp
14 15 15 14 13 13 13 13 12 12 12 11 10 10 10 10 9 9 9 9 9 9
14 14 14 14 13 13 13 12 12 12 11 10 10 9 9 9 9 8 8 8 8 8
14 14 14 14 13 13 12 12 12 11 10 10 10 9 9 8 8 8 8 8 8 8
14 14 13 13 13 12 12 12 11 11 10 10 9 9 8 8 8 8 8 7 8 7
13 13 13 12 12 12 11 11 11 10 10 9 9 9 8 8 8 8 7 7 7 7
12 12 12 12 12 11 11 10 10 10 9 9 9 9 8 7 8 7 7 7 6 6
11 11 11 11 11 10 10 10 10 9 9 9 9 8 7 8 7 6 6 6 6 6
10 10 10 10 10 10 10 9 9 9 8 8 8 7 7 7 6 6 5 5 5 4
9 9 9 9 9 9 9 8 8 8 8 7 7 7 7 6 6 5 4 4 3 3
9 8 8 8 7 7 7 7 7 7 6 6 6 6 6 5 4 4 4 3 2 2
8 8 7 7 7 6 6 6 6 5 5 5 5 5 5 5 4 3 2 2 2 2
6 7 7 7 7 6 6 6 5 6 6 5 5 5 4 4 3 2 2 2 2 1
4 5 6 6 7 6 6 6 6 6 5 5 4 4 4 3 3 2 1 1 2 1
3 4 5 6 6 6 5 5 5 4 4 4 4 4 4 3 3 2 2 1 1 1
Height
796 797 797 797 799 801 803 805 807 809 811 813 815 816 818 818 819 820 823 823 823 820
790 793 794 793 793 794 797 801 802 804 807 810 812 813 814 816 817 818 818 819 820 820
785 784 786 791 791 791 792 795 799 801 803 806 808 810 810 812 813 814 816 817 817 817
783 783 783 783 786 788 789 786 790 797 797 801 803 805 807 808 809 811 812 814 815 816
779 778 779 781 783 785 788 786 783 787 790 795 796 800 802 804 804 807 807 808 810 811
777 776 774 775 777 778 781 782 782 784 784 790 791 793 796 799 798 803 805 806 808 810
774 773 774 774 775 775 776 777 778 779 781 784 785 789 792 792 796 800 801 803 804 806
770 770 770 771 771 772 773 773 773 776 778 783 780 783 787 788 792 796 797 799 800 802
769 768 768 768 768 768 769 772 772 774 775 778 777 780 783 785 790 792 793 795 797 798
767 766 765 765 767 767 767 769 771 772 775 773 777 776 781 784 788 790 791 793 795 796
766 764 762 763 761 764 764 767 769 770 771 772 776 775 778 782 784 787 789 790 793 794
764 762 759 756 755 759 761 762 765 766 768 770 771 772 776 779 782 785 786 787 789 791
762 755 753 751 748 750 755 758 759 763 765 765 767 772 773 776 781 782 783 784 787 788
757 753 746 741 741 744 747 750 755 757 758 762 765 769 771 774 775 780 780 782 783 785
Wind_Speed
22 22 22 23 23 24 24 22 19 17 16 15 14 12 11 10 9 9 10 11 12 11
24 24 24 25 25 26 24 22 20 18 17 16 15 13 10 9 8 8 10 10 11 11
25 28 28 26 26 26 24 22 22 19 18 17 15 13 11 11 9 9 10 10 11 11
24 24 27 28 28 28 26 28 24 21 19 17 15 13 12 11 10 10 10 10 10 12
23 24 24 25 25 26 27 26 24 23 20 19 17 14 13 13 13 12 11 11 11 12
20 22 23 27 27 27 28 25 22 22 21 21 20 17 17 18 12 14 11 11 10 10
20 22 23 25 26 26 27 26 24 23 22 22 20 18 19 13 12 11 11 11 13 13
18 20 22 23 24 25 25 24 23 22 21 22 19 20 17 13 14 14 13 11 11 12
19 19 21 24 25 24 21 18 18 19 23 23 20 17 15 15 14 12 11 9 9 8
21 20 20 19 19 19 18 18 19 19 20 18 18 17 16 14 11 8 10 9 7 8
20 17 15 14 15 13 11 11 13 14 13 13 17 14 15 12 9 9 8 7 8 10
25 22 21 19 17 14 15 15 18 17 16 19 19 16 15 12 11 10 8 6 4 6
29 28 28 28 24 24 20 24 21 22 20 20 18 18 14 12 12 11 8 5 6 7
28 28 30 29 25 23 24 22 21 21 20 19 18 17 15 14 13 12 8 7 6 6
Wind_Direction
229 228 222 213 210 209 215 218 216 218 218 218 223 224 228 233 240 242 247 255 257 254
229 231 229 216 215 213 215 216 213 215 213 214 221 224 226 232 240 243 252 256 264 267
232 225 224 224 214 211 207 205 209 210 209 213 217 218 219 227 234 234 243 256 263 262
243 237 229 221 219 217 209 205 208 210 208 211 210 211 215 224 224 232 247 251 259 266
253 241 234 224 221 217 215 215 205 202 201 204 204 206 210 219 218 231 239 247 249 253
265 248 237 225 218 215 218 211 205 200 195 204 202 203 213 213 213 231 239 247 252 255
267 252 242 233 231 221 214 208 205 202 200 202 202 213 214 215 217 222 232 233 238 246
273 252 240 232 228 221 216 214 208 203 205 209 203 209 208 208 211 221 230 236 245 257
283 260 251 241 232 221 218 217 216 216 212 209 203 210 217 209 212 218 228 239 246 259
283 262 251 238 234 222 214 218 217 217 218 208 215 208 204 197 205 217 220 234 250 250
282 257 236 224 211 218 214 226 228 227 221 217 220 208 192 199 203 199 205 232 257 265
292 269 241 216 197 209 231 226 227 234 235 219 211 201 195 195 188 196 214 223 270 265
324 263 243 225 231 215 219 228 225 233 227 222 212 201 199 189 192 194 214 236 270 258
314 317 263 233 221 219 225 218 221 216 209 205 209 203 198 198 199 213 216 236 248 255